| time (UTC) | temp C | wind direction | speed KPH | gust KPH | rain 1hr cm | rain 24hr cm | rain mn cm | humidity % | barometer mb |
| 20260904005126 | 21 | 36 | 0.0 | 0.0 | 0.00 | 0.74 | 0.74 | 55 | 1012.2 |
| 20260904004125 | 21 | 35 | 0.0 | 0.0 | 0.00 | 0.74 | 0.74 | 56 | 1012.2 |
| 20260904003125 | 21 | 35 | 0.0 | 0.0 | 0.00 | 0.74 | 0.74 | 56 | 1012.0 |
| 20260904002126 | 21 | 35 | 0.0 | 0.0 | 0.00 | 0.74 | 0.74 | 56 | 1011.9 |
| 20260904001126 | 21 | 36 | 0.0 | 0.0 | 0.00 | 0.74 | 0.74 | 56 | 1011.7 |
| 20260904000627 | 22 | 35 | 0.0 | 0.0 | 0.00 | 0.74 | 0.74 | 57 | 1011.7 |
| 20260903235626 | 22 | 36 | 0.0 | 0.0 | 0.00 | 0.74 | 0.74 | 57 | 1011.6 |
| 20260903234125 | 22 | 35 | 0.0 | 1.6 | 0.00 | 0.74 | 0.74 | 57 | 1011.5 |
| 20260903233126 | 22 | 35 | 0.0 | 0.0 | 0.00 | 0.74 | 0.74 | 58 | 1011.6 |
| 20260903232118 | 22 | 36 | 0.0 | 0.0 | 0.00 | 0.74 | 0.74 | 59 | 1011.5 |
| 20260903231120 | 22 | 35 | 0.0 | 0.0 | 0.00 | 0.74 | 0.74 | 60 | 1011.6 |
| 20260903230120 | 23 | 36 | 0.0 | 0.0 | 0.00 | 0.74 | 0.74 | 61 | 1011.5 |
| 20260903225118 | 23 | 35 | 0.0 | 0.0 | 0.00 | 0.74 | 0.74 | 62 | 1011.7 |
| 20260903224119 | 23 | 35 | 0.0 | 0.0 | 0.00 | 0.74 | 0.74 | 62 | 1011.7 |
| 20260903223120 | 23 | 36 | 0.0 | 0.0 | 0.00 | 0.74 | 0.74 | 62 | 1011.9 |
| 20260903222118 | 23 | 35 | 0.0 | 3.2 | 0.00 | 0.74 | 0.74 | 62 | 1011.8 |
| 20260903221621 | 23 | 63 | 0.0 | 1.6 | 0.00 | 0.74 | 0.74 | 62 | 1011.9 |
| 20260903221235 | 23 | 60 | 0.0 | 1.6 | 0.00 | 0.74 | 0.74 | 64 | 1011.8 |
| 20260903215617 | 23 | 68 | 0.0 | 6.4 | 0.00 | 0.74 | 0.74 | 66 | 1011.7 |
| 20260903214115 | 23 | 248 | 0.0 | 4.8 | 0.00 | 0.74 | 0.74 | 66 | 1011.8 |
| 20260903213114 | 23 | 75 | 1.6 | 6.4 | 0.00 | 0.74 | 0.74 | 66 | 1011.8 |
| 20260903212114 | 23 | 273 | 0.0 | 3.2 | 0.00 | 0.74 | 0.74 | 65 | 1011.9 |
| 20260903211112 | 23 | 52 | 0.0 | 1.6 | 0.00 | 0.74 | 0.74 | 66 | 1011.7 |
| 20260903210116 | 23 | 253 | 0.0 | 3.2 | 0.00 | 0.74 | 0.74 | 67 | 1011.7 |
| 20260903205117 | 24 | 36 | 0.0 | 6.4 | 0.00 | 0.74 | 0.74 | 69 | 1011.9 |
| 20260903205113 | 23 | 96 | 0.0 | 4.8 | 0.00 | 0.74 | 0.74 | 69 | 1011.7 |
| 20260903203114 | 24 | 287 | 1.6 | 6.4 | 0.00 | 0.74 | 0.74 | 69 | 1011.8 |
| 20260903202108 | 25 | 52 | 0.0 | 4.8 | 0.00 | 0.74 | 0.74 | 68 | 1011.8 |
| 20260903201119 | 24 | 41 | 1.6 | 8.0 | 0.00 | 0.74 | 0.74 | 69 | 1011.7 |
| 20260903200109 | 25 | 97 | 1.6 | 9.7 | 0.00 | 0.74 | 0.74 | 72 | 1012.0 |
| 20260903195108 | 26 | 307 | 0.0 | 4.8 | 0.00 | 0.74 | 0.74 | 72 | 1012.0 |
| 20260903194108 | 26 | 191 | 0.0 | 1.6 | 0.00 | 0.74 | 0.74 | 71 | 1012.0 |
| 20260903193108 | 26 | 193 | 0.0 | 3.2 | 0.00 | 0.74 | 0.74 | 69 | 1012.1 |
| 20260903192109 | 25 | 134 | 0.0 | 1.6 | 0.00 | 0.74 | 0.74 | 70 | 1012.2 |
| 20260903191108 | 25 | 134 | 0.0 | 1.6 | 0.00 | 0.74 | 0.74 | 70 | 1012.4 |
| 20260903190109 | 25 | 131 | 0.0 | 1.6 | 0.00 | 0.74 | 0.74 | 70 | 1012.5 |
| 20260903185603 | 26 | 134 | 0.0 | 4.8 | 0.00 | 0.74 | 0.74 | 70 | 1012.6 |
| 20260903184103 | 26 | 101 | 0.0 | 3.2 | 0.00 | 0.74 | 0.74 | 71 | 1012.5 |
| 20260903183100 | 26 | 134 | 0.0 | 1.6 | 0.00 | 0.74 | 0.74 | 72 | 1012.7 |
| 20260903182102 | 26 | 135 | 0.0 | 3.2 | 0.00 | 0.74 | 0.74 | 69 | 1012.7 |
| 20260903181631 | 26 | 123 | 0.0 | 3.2 | 0.00 | 0.74 | 0.74 | 69 | 1012.8 |
| 20260903180112 | 26 | 145 | 1.6 | 3.2 | 0.00 | 0.74 | 0.74 | 70 | 1012.9 |
| 20260903175100 | 26 | 110 | 0.0 | 3.2 | 0.00 | 0.74 | 0.74 | 72 | 1012.9 |
| 20260903174102 | 26 | 164 | 0.0 | 1.6 | 0.00 | 0.74 | 0.74 | 73 | 1013.0 |
| 20260903173102 | 26 | 237 | 0.0 | 1.6 | 0.00 | 0.74 | 0.74 | 72 | 1013.2 |
| 20260903172058 | 26 | 236 | 0.0 | 1.6 | 0.00 | 0.74 | 0.74 | 71 | 1013.3 |
| 20260903171055 | 25 | 236 | 0.0 | 3.2 | 0.00 | 0.74 | 0.74 | 70 | 1013.1 |
| 20260903170106 | 25 | 246 | 0.0 | 1.6 | 0.00 | 0.74 | 0.74 | 69 | 1013.3 |
| 20260903165054 | 25 | 240 | 0.0 | 3.2 | 0.00 | 0.74 | 0.74 | 66 | 1013.1 |
| 20260903164054 | 25 | 248 | 0.0 | 1.6 | 0.00 | 0.74 | 0.74 | 65 | 1013.0 |
| 20260903163055 | 24 | 261 | 0.0 | 0.0 | 0.00 | 0.74 | 0.74 | 62 | 1013.0 |
| 20260903162054 | 24 | 262 | 0.0 | 1.6 | 0.00 | 0.74 | 0.74 | 57 | 1013.0 |
| 20260903161556 | 23 | 262 | 0.0 | 0.0 | 0.00 | 0.74 | 0.74 | 54 | 1013.1 |
| 20260903160107 | 23 | 302 | 0.0 | 3.2 | 0.00 | 0.74 | 0.74 | 52 | 1013.3 |
| 20260903155047 | 23 | 249 | 0.0 | 3.2 | 0.00 | 0.74 | 0.74 | 53 | 1013.3 |
| 20260903154549 | 23 | 243 | 0.0 | 0.0 | 0.00 | 0.74 | 0.74 | 52 | 1013.6 |
| 20260903153050 | 22 | 242 | 0.0 | 3.2 | 0.00 | 0.74 | 0.74 | 53 | 1013.6 |
| 20260903152046 | 22 | 263 | 0.0 | 1.6 | 0.00 | 0.74 | 0.74 | 53 | 1013.8 |
| 20260903151049 | 22 | 255 | 0.0 | 0.0 | 0.00 | 0.74 | 0.74 | 53 | 1013.9 |
| 20260903150100 | 22 | 208 | 0.0 | 0.0 | 0.00 | 0.74 | 0.74 | 53 | 1014.1 |
| 20260903145049 | 22 | 208 | 0.0 | 0.0 | 0.00 | 0.74 | 0.74 | 54 | 1014.2 |
| 20260903144548 | 22 | 208 | 0.0 | 0.0 | 0.00 | 0.74 | 0.74 | 54 | 1014.2 |
| 20260903144203 | 21 | 208 | 0.0 | 1.6 | 0.00 | 0.74 | 0.74 | 54 | 1014.4 |
| 20260903142042 | 21 | 269 | 0.0 | 1.6 | 0.00 | 0.74 | 0.74 | 55 | 1014.8 |
| 20260903141041 | 21 | 156 | 0.0 | 0.0 | 0.03 | 0.74 | 0.74 | 55 | 1014.9 |
| 20260903140054 | 21 | 156 | 0.0 | 1.6 | 0.03 | 0.74 | 0.74 | 55 | 1014.9 |
| 20260903135041 | 21 | 153 | 0.0 | 1.6 | 0.03 | 0.74 | 0.74 | 55 | 1014.8 |
| 20260903134041 | 20 | 159 | 0.0 | 1.6 | 0.08 | 0.74 | 0.74 | 56 | 1015.0 |
| 20260903133041 | 20 | 159 | 0.0 | 1.6 | 0.10 | 0.74 | 0.74 | 56 | 1014.9 |
| 20260903132041 | 20 | 161 | 0.0 | 1.6 | 0.10 | 0.74 | 0.74 | 56 | 1014.8 |
| 20260903131041 | 20 | 161 | 0.0 | 1.6 | 0.10 | 0.71 | 0.71 | 56 | 1014.9 |
| 20260903130053 | 20 | 162 | 0.0 | 1.6 | 0.10 | 0.71 | 0.71 | 56 | 1014.8 |
| 20260903125036 | 20 | 170 | 0.0 | 1.6 | 0.15 | 0.71 | 0.71 | 56 | 1015.0 |
| 20260903124537 | 19 | 172 | 0.0 | 1.6 | 0.18 | 0.66 | 0.66 | 56 | 1015.2 |
| 20260903123035 | 19 | 163 | 0.0 | 1.6 | 0.15 | 0.64 | 0.64 | 56 | 1015.4 |
| 20260903122036 | 19 | 167 | 0.0 | 1.6 | 0.15 | 0.64 | 0.64 | 57 | 1015.4 |
| 20260903121035 | 19 | 166 | 0.0 | 1.6 | 0.13 | 0.61 | 0.61 | 57 | 1015.5 |
| 20260903120035 | 19 | 159 | 0.0 | 1.6 | 0.13 | 0.61 | 0.61 | 57 | 1015.6 |
| 20260903115035 | 19 | 149 | 0.0 | 1.6 | 0.08 | 0.56 | 0.58 | 57 | 1015.8 |
| 20260903114047 | 19 | 142 | 0.0 | 1.6 | 0.00 | 0.48 | 0.48 | 57 | 1015.7 |
| 20260903113036 | 19 | 145 | 0.0 | 1.6 | 0.00 | 0.48 | 0.48 | 57 | 1015.9 |
| 20260903112042 | 18 | 144 | 0.0 | 1.6 | 0.03 | 0.48 | 0.48 | 57 | 1016.0 |
| 20260903111030 | 18 | 139 | 0.0 | 1.6 | 0.10 | 0.48 | 0.48 | 57 | 1016.1 |
| 20260903110030 | 18 | 142 | 0.0 | 1.6 | 0.28 | 0.48 | 0.48 | 57 | 1016.1 |
| 20260903105043 | 18 | 143 | 0.0 | 1.6 | 0.36 | 0.48 | 0.48 | 58 | 1016.0 |
| 20260903104029 | 18 | 145 | 0.0 | 1.6 | 0.41 | 0.48 | 0.48 | 58 | 1015.8 |
| 20260903103030 | 18 | 142 | 0.0 | 1.6 | 0.43 | 0.48 | 0.48 | 58 | 1015.7 |
| 20260903102041 | 18 | 125 | 0.0 | 1.6 | 0.41 | 0.46 | 0.48 | 58 | 1015.8 |
| 20260903101028 | 18 | 136 | 0.0 | 1.6 | 0.33 | 0.38 | 0.41 | 58 | 1015.8 |
| 20260903100028 | 18 | 141 | 0.0 | 1.6 | 0.18 | 0.20 | 0.20 | 58 | 1016.0 |
| 20260903095023 | 18 | 139 | 0.0 | 1.6 | 0.10 | 0.13 | 0.13 | 58 | 1015.8 |
| 20260903094022 | 18 | 142 | 0.0 | 1.6 | 0.05 | 0.08 | 0.08 | 59 | 1015.9 |
| 20260903093024 | 18 | 142 | 0.0 | 0.0 | 0.03 | 0.05 | 0.08 | 59 | 1015.9 |
| 20260903092024 | 18 | 141 | 0.0 | 1.6 | 0.03 | 0.05 | 0.05 | 59 | 1015.9 |
| 20260903091024 | 18 | 141 | 0.0 | 1.6 | 0.03 | 0.03 | 0.03 | 59 | 1015.9 |
| 20260903090022 | 18 | 141 | 0.0 | 0.0 | 0.03 | 0.03 | 0.03 | 59 | 1016.3 |
| 20260903085524 | 18 | 141 | 0.0 | 0.0 | 0.03 | 0.03 | 0.03 | 59 | 1016.3 |
| 20260903084024 | 18 | 141 | 0.0 | 0.0 | 0.03 | 0.03 | 0.03 | 60 | 1016.4 |
| 20260903083524 | 17 | 141 | 0.0 | 0.0 | 0.03 | 0.03 | 0.03 | 61 | 1016.4 |
| 20260903082018 | 17 | 141 | 0.0 | 0.0 | 0.03 | 0.03 | 0.03 | 63 | 1016.5 |
| 20260903081018 | 17 | 141 | 0.0 | 0.0 | 0.00 | 0.00 | 0.00 | 65 | 1016.7 |
| 20260903080020 | 17 | 141 | 0.0 | 0.0 | 0.00 | 0.00 | 0.00 | 66 | 1017.0 |
| 20260903075018 | 17 | 143 | 0.0 | 0.0 | 0.00 | 0.00 | 0.00 | 66 | 1017.1 |
| 20260903074017 | 17 | 141 | 0.0 | 0.0 | 0.00 | 0.00 | 0.00 | 67 | 1017.0 |
| 20260903073017 | 17 | 141 | 0.0 | 0.0 | 0.00 | 0.00 | 0.00 | 67 | 1017.3 |
| 20260903072017 | 17 | 141 | 0.0 | 0.0 | 0.00 | 0.00 | 0.00 | 67 | 1017.3 |
| 20260903071017 | 17 | 141 | 0.0 | 0.0 | 0.00 | 0.00 | 0.00 | 67 | 1017.4 |
| 20260903070016 | 17 | 141 | 0.0 | 0.0 | 0.00 | 0.00 | 0.00 | 68 | 1017.7 |
| 20260903065011 | 16 | 141 | 0.0 | 1.6 | 0.00 | 0.00 | 0.00 | 67 | 1017.7 |
| 20260903064512 | 16 | 141 | 0.0 | 0.0 | 0.00 | 0.00 | 0.00 | 67 | 1018.0 |
| 20260903063011 | 16 | 141 | 0.0 | 0.0 | 0.00 | 0.00 | 0.00 | 67 | 1018.0 |
| 20260903062017 | 16 | 142 | 0.0 | 0.0 | 0.00 | 0.00 | 0.00 | 65 | 1018.5 |
| 20260903062011 | 16 | 141 | 0.0 | 1.6 | 0.00 | 0.00 | 0.00 | 66 | 1018.3 |
| 20260903060511 | 16 | 142 | 0.0 | 1.6 | 0.00 | 0.00 | 0.00 | 64 | 1018.6 |
| 20260903055011 | 16 | 142 | 0.0 | 0.0 | 0.00 | 0.00 | 0.00 | 64 | 1018.8 |
| 20260903054012 | 16 | 142 | 0.0 | 0.0 | 0.00 | 0.00 | 0.00 | 64 | 1018.7 |
| 20260903053512 | 15 | 142 | 0.0 | 0.0 | 0.00 | 0.00 | 0.00 | 63 | 1019.0 |
| 20260903052006 | 15 | 142 | 0.0 | 0.0 | 0.00 | 0.00 | 0.00 | 63 | 1019.3 |
| 20260903051519 | 15 | 142 | 0.0 | 0.0 | 0.00 | 0.00 | 0.00 | 63 | 1019.4 |
| 20260903050004 | 15 | 143 | 0.0 | 0.0 | 0.00 | 0.00 | 0.00 | 63 | 1019.5 |
| 20260903045006 | 15 | 142 | 0.0 | 0.0 | 0.00 | 0.00 | 0.00 | 63 | 1019.4 |
| 20260903044005 | 15 | 141 | 0.0 | 0.0 | 0.00 | 0.00 | 0.00 | 63 | 1019.2 |
| 20260903043005 | 15 | 141 | 0.0 | 0.0 | 0.00 | 0.00 | 0.00 | 63 | 1019.3 |
| 20260903042019 | 15 | 141 | 0.0 | 0.0 | 0.00 | 0.00 | 0.00 | 63 | 1019.3 |
| 20260903041006 | 15 | 141 | 0.0 | 0.0 | 0.00 | 0.00 | 0.00 | 63 | 1019.1 |
| 20260903040003 | 15 | 141 | 0.0 | 0.0 | 0.00 | 0.00 | 0.00 | 63 | 1019.4 |
| 20260903034958 | 15 | 141 | 0.0 | 0.0 | 0.00 | 0.00 | 0.00 | 64 | 1019.5 |
| 20260903033959 | 15 | 141 | 0.0 | 0.0 | 0.00 | 0.00 | 0.00 | 65 | 1019.4 |
| 20260903032957 | 15 | 141 | 0.0 | 0.0 | 0.00 | 0.00 | 0.00 | 65 | 1019.4 |
| 20260903031958 | 15 | 141 | 0.0 | 0.0 | 0.00 | 0.00 | 0.00 | 66 | 1019.7 |
| 20260903031458 | 15 | 141 | 0.0 | 0.0 | 0.00 | 0.00 | 0.00 | 66 | 1019.7 |
| 20260903025958 | 16 | 141 | 0.0 | 0.0 | 0.00 | 0.00 | 0.00 | 66 | 1019.8 |
| 20260903024957 | 16 | 142 | 0.0 | 0.0 | 0.00 | 0.00 | 0.00 | 67 | 1020.0 |
| 20260903024500 | 16 | 143 | 0.0 | 0.0 | 0.00 | 0.00 | 0.00 | 66 | 1019.9 |
| 20260903022957 | 16 | 141 | 0.0 | 0.0 | 0.00 | 0.00 | 0.00 | 68 | 1019.7 |
| 20260903021951 | 16 | 141 | 0.0 | 0.0 | 0.00 | 0.00 | 0.00 | 68 | 1019.8 |
| 20260903020950 | 16 | 141 | 0.0 | 0.0 | 0.00 | 0.00 | 0.00 | 69 | 1020.0 |
| 20260903015953 | 16 | 141 | 0.0 | 0.0 | 0.00 | 0.00 | 0.00 | 69 | 1019.9 |
| 20260903014950 | 16 | 141 | 0.0 | 0.0 | 0.00 | 0.00 | 0.00 | 69 | 1020.2 |
| 20260903013951 | 16 | 141 | 0.0 | 0.0 | 0.00 | 0.00 | 0.00 | 71 | 1020.2 |
| 20260903012952 | 16 | 141 | 0.0 | 0.0 | 0.00 | 0.00 | 0.00 | 72 | 1020.3 |
| 20260903011953 | 17 | 141 | 0.0 | 0.0 | 0.00 | 0.00 | 0.00 | 72 | 1020.3 |
| 20260903010952 | 17 | 141 | 0.0 | 0.0 | 0.00 | 0.00 | 0.00 | 73 | 1020.5 |
| 20260903005953 | 17 | 141 | 0.0 | 0.0 | 0.00 | 0.00 | 0.00 | 73 | 1020.6 |